Home   Weather   Male   Past weeks

Flag for Maldives Past Weather in Male, Maldives — Yesterday and Last 2 Weeks

Now
86 °F

Scattered clouds.


Feels Like: 99 °F
Forecast: 82 / 87 °F
Wind: 1 mph from North

Location: Male Airport

Current Time: Jul 23, 2017 at 11:59:24 am

Latest Report: Jul 23, 2017 at 9:00 am


Visibility: N/A

Pressure: 29.86 "Hg

Humidity: 79%

Dew Point: 79 °F

Location of MaleLocation

Past Weather in Male — Graph

°F

Male Temperature Yesterday

Maximum temperature yesterday: 90 °F (at 12:00 pm)
Minimum temperature yesterday: 84 °F (at 12:00 am)
Average temperature yesterday: 86 °F

High & Low Weather Summary for the Past Weeks

 TemperatureHumidityPressure
High90 °F (Jul 16, 12:00 pm)100% (Jul 9, 4:00 am)29.92 "Hg (Jul 9, 4:00 am)
Low77 °F (Jul 9, 4:00 am)66% (Jul 9, 12:00 pm)29.74 "Hg (Jul 17, 3:00 pm)
Average85 °F81%29.84 "Hg
* Reported Jul 8 9:00 am — Jul 23 9:00 am, Male. Weather by CustomWeather, © 2017

Note: Actual official high and low records may vary slightly from our data, if they occured in-between our weather recording intervals... More about our weather records

Advertising

Male Weather History for the Previous 24 Hours

Scroll right to see more
 ConditionsComfort  
Time TempWeatherWind HumidityBarometerVisibility
9:00 am
Sun, Jul 23
86 °FScattered clouds.1 mph79%29.86 "HgN/A
8:00 am86 °FPassing clouds.2 mph75%29.83 "HgN/A
7:00 am82 °FScattered clouds.2 mph89%29.83 "HgN/A
6:00 am82 °FPassing clouds.No wind89%29.80 "HgN/A
5:00 am84 °FPartly cloudy.3 mph84%29.80 "HgN/A
4:00 am84 °FPartly cloudy.2 mph79%29.80 "HgN/A
3:00 am84 °FPassing clouds.2 mph79%29.83 "HgN/A
2:00 am84 °FPassing clouds.2 mph79%29.83 "HgN/A
1:00 am84 °FPassing clouds.1 mph79%29.83 "HgN/A
12:00 am84 °FPassing clouds.3 mph79%29.86 "HgN/A
11:00 pm
Sat, Jul 22
84 °FPartly cloudy.5 mph74%29.86 "HgN/A
10:00 pm84 °FPassing clouds.7 mph84%29.86 "HgN/A
9:00 pm84 °FPassing clouds.5 mph79%29.86 "HgN/A
8:00 pm84 °FPassing clouds.3 mph79%29.83 "HgN/A
7:00 pm86 °FPassing clouds.3 mph75%29.83 "HgN/A
6:00 pm86 °FPartly sunny.6 mph75%29.80 "HgN/A
5:00 pm88 °FPartly sunny.6 mph70%29.80 "HgN/A
4:00 pm88 °FPartly sunny.6 mph66%29.77 "HgN/A
3:00 pm88 °FScattered clouds.8 mph70%29.77 "HgN/A
2:00 pm88 °FPartly sunny.6 mph84%29.77 "HgN/A
1:00 pm90 °FPartly sunny.5 mph75%29.80 "HgN/A
12:00 pm90 °FPartly sunny.5 mph75%29.83 "HgN/A
11:00 am88 °FPassing clouds.5 mph84%29.83 "HgN/A
Weather by CustomWeather, © 2017

See weather overviewHow to use our weather pages